Location: Marcé
(47.5801°N, 0.3280°W)
Time: 16:11:20
(UTC+01:00)

Explorer 7 - Pass Details

Date: 09 December 2021
Orbit: 483 x 674 km, 50.3° (Epoch: 23 January)

Event Time Altitude Azimuth Distance (km) Brightness Sun altitude
Rises 08:12:48 0° 282° (WNW) 2,793 - -4.4°
Exits shadow 08:13:50 - 284° (WNW) 2,381 9.4 -4.2°
Reaches altitude 10° 08:15:09 10° 286° (WNW) 1,859 8.9 -4.0°
Maximum altitude 08:19:20 62° 7° (N) 612 7.0 -3.4°
Drops below altitude 10° 08:23:16 10° 89° (E) 1,748 10.5 -2.9°
Sets 08:25:26 0° 93° (E) 2,609 11.5 -2.5°
